Date,TemperatureHighF,TemperatureAvgF,TemperatureLowF,DewpointHighF,DewpointAvgF,DewpointLowF,HumidityHigh,HumidityAvg,HumidityLow,PressureMaxIn,PressureMinIn,WindSpeedMaxMPH,WindSpeedAvgMPH,GustSpeedMaxMPH,PrecipitationSumIn
2013-3-1,37.4,34.3,31.3,37.1,34.0,30.9,99,99,99,30.12,30.01,10,2,10,0.09
2013-3-2,31.5,28.5,26.8,31.2,26.5,24.3,99,92,82,30.17,30.09,12,3,12,0.00
2013-3-3,34.5,28.1,18.0,29.8,24.6,17.7,99,87,70,30.18,30.12,11,2,11,0.01
2013-3-4,48.0,32.0,12.9,31.4,24.0,12.5,99,76,43,30.26,30.08,8,2,8,0.00
2013-3-5,41.5,37.3,30.0,40.0,34.4,28.9,99,90,70,30.10,29.65,11,3,11,0.37
2013-3-6,34.9,30.7,28.2,34.5,30.4,28.0,99,99,99,30.35,29.75,0,0,0,0.00
2013-3-7,42.3,34.1,29.1,38.4,33.1,28.9,99,96,81,30.47,30.33,4,0,4,0.22
2013-3-8,50.4,34.5,21.7,39.3,29.2,21.5,99,84,50,30.56,30.45,11,2,11,0.00
2013-3-9,64.2,42.1,23.2,45.3,35.0,22.9,99,80,44,30.48,30.14,10,2,10,0.00
2013-3-10,74.5,58.6,46.4,49.1,41.9,38.9,81,57,36,30.14,29.94,10,3,11,0.04
2013-3-11,55.0,48.3,37.8,54.8,47.8,37.3,99,98,82,29.97,29.72,15,3,15,1.02
2013-3-12,50.9,39.5,34.7,38.0,34.6,30.0,99,84,58,30.15,29.96,14,4,14,0.00
2013-3-13,37.2,31.7,25.7,36.1,27.6,22.4,99,86,65,30.41,30.10,22,5,22,0.01
2013-3-14,51.1,33.9,19.4,30.2,24.6,19.2,99,74,37,30.45,30.26,11,2,11,0.00
2013-3-15,57.9,41.4,24.6,45.5,37.0,24.4,99,86,63,30.27,29.88,8,2,8,0.00
2013-3-16,69.6,50.8,39.0,60.6,47.5,24.0,99,90,66,30.11,29.72,18,4,18,0.09
2013-3-17,39.4,35.3,32.5,38.6,35.0,32.3,99,99,96,30.23,30.06,15,4,15,0.38
2013-3-18,51.1,42.1,34.9,50.8,41.8,34.6,99,99,93,30.07,29.72,19,3,19,0.52
2013-3-19,50.4,39.4,30.9,38.9,28.0,17.2,99,69,33,30.20,29.94,23,5,23,0.00
2013-3-20,45.7,33.8,22.6,30.1,21.9,13.5,99,64,42,30.20,30.03,20,4,20,0.00
2013-3-21,40.5,26.9,19.2,19.9,16.0,10.5,89,66,40,30.14,30.03,13,3,13,0.00
2013-3-22,55.0,31.8,14.2,28.0,20.6,14.0,99,70,32,30.17,30.06,9,1,9,3.59
2013-3-23,58.3,41.5,26.8,33.0,28.7,25.1,96,66,35,30.16,29.96,11,2,11,0.00
2013-3-24,40.8,36.0,32.4,37.1,31.9,27.1,99,86,60,29.97,29.48,26,5,26,0.24
2013-3-25,35.6,33.2,30.4,35.0,32.9,30.1,99,99,99,30.04,29.51,18,2,18,0.22
2013-3-26,44.1,35.8,32.2,39.5,33.4,29.5,99,91,68,30.33,30.03,12,2,12,0.06
2013-3-27,34.5,32.1,27.1,32.2,31.2,26.9,99,96,83,30.37,30.32,7,2,7,0.00
2013-3-28,32.7,32.7,32.7,32.2,32.2,32.2,98,98,98,30.37,30.37,2,2,5,0.00
2013-3-29,32.7,32.7,32.7,32.2,32.2,32.2,98,98,98,30.37,30.37,2,2,5,0.00